| time (UTC) | temp F | wind direction | speed MPH | gust MPH | rain 1hr in | rain 24hr in | rain mn in | humidity % | barometer mb |
| 20260506044010 | 64 | 5 | 1.0 | 6.0 | 0.00 | 0.34 | 0.15 | 41 | 1012.1 |
| 20260506043510 | 65 | 244 | 0.0 | 5.0 | 0.00 | 0.34 | 0.15 | 42 | 1012.0 |
| 20260506043007 | 65 | 269 | 1.0 | 9.0 | 0.00 | 0.34 | 0.15 | 42 | 1012.0 |
| 20260506042507 | 65 | 300 | 1.0 | 14.0 | 0.00 | 0.34 | 0.15 | 45 | 1012.0 |
| 20260506042006 | 65 | 70 | 1.0 | 14.0 | 0.00 | 0.34 | 0.15 | 47 | 1012.0 |
| 20260506041507 | 65 | 322 | 1.0 | 9.0 | 0.00 | 0.34 | 0.15 | 48 | 1011.9 |
| 20260506041006 | 65 | 230 | 2.0 | 9.0 | 0.00 | 0.34 | 0.15 | 47 | 1011.8 |
| 20260506040506 | 65 | 302 | 1.0 | 4.0 | 0.00 | 0.34 | 0.15 | 47 | 1011.6 |
| 20260506040006 | 65 | 132 | 1.0 | 4.0 | 0.00 | 0.34 | 0.15 | 47 | 1011.5 |
| 20260506035506 | 64 | 302 | 0.0 | 3.0 | 0.00 | 0.34 | 0.15 | 47 | 1011.4 |
| 20260506035007 | 64 | 360 | 0.0 | 1.0 | 0.00 | 0.34 | 0.15 | 46 | 1011.2 |
| 20260506034506 | 64 | 281 | 0.0 | 1.0 | 0.00 | 0.34 | 0.15 | 44 | 1011.1 |
| 20260506034006 | 64 | 226 | 0.0 | 3.0 | 0.00 | 0.34 | 0.15 | 43 | 1011.1 |
| 20260506033505 | 65 | 223 | 0.0 | 3.0 | 0.00 | 0.34 | 0.15 | 42 | 1011.0 |
| 20260506033006 | 65 | 259 | 0.0 | 5.0 | 0.00 | 0.34 | 0.15 | 41 | 1011.0 |
| 20260506032505 | 65 | 236 | 0.0 | 5.0 | 0.00 | 0.34 | 0.15 | 41 | 1010.9 |
| 20260506032006 | 66 | 225 | 0.0 | 4.0 | 0.00 | 0.34 | 0.15 | 40 | 1010.8 |
| 20260506031505 | 66 | 235 | 0.0 | 4.0 | 0.00 | 0.34 | 0.15 | 39 | 1010.7 |
| 20260506031007 | 66 | 273 | 0.0 | 4.0 | 0.00 | 0.34 | 0.15 | 39 | 1010.6 |
| 20260506030508 | 66 | 193 | 0.0 | 7.0 | 0.00 | 0.34 | 0.15 | 38 | 1010.6 |
| 20260506030004 | 67 | 311 | 1.0 | 7.0 | 0.00 | 0.35 | 0.15 | 38 | 1010.6 |
| 20260506025504 | 67 | 248 | 1.0 | 6.0 | 0.00 | 0.35 | 0.15 | 37 | 1010.4 |
| 20260506025004 | 67 | 249 | 1.0 | 9.0 | 0.00 | 0.35 | 0.15 | 37 | 1010.5 |
| 20260506024504 | 67 | 245 | 1.0 | 9.0 | 0.00 | 0.35 | 0.15 | 36 | 1010.4 |
| 20260506024004 | 67 | 194 | 1.0 | 8.0 | 0.00 | 0.35 | 0.15 | 36 | 1010.4 |
| 20260506023504 | 67 | 285 | 1.0 | 8.0 | 0.00 | 0.35 | 0.15 | 36 | 1010.3 |
| 20260506023004 | 67 | 289 | 0.0 | 8.0 | 0.00 | 0.35 | 0.15 | 35 | 1010.3 |
| 20260506022504 | 68 | 269 | 0.0 | 8.0 | 0.00 | 0.35 | 0.15 | 34 | 1010.1 |
| 20260506022007 | 68 | 242 | 0.0 | 7.0 | 0.00 | 0.35 | 0.15 | 34 | 1010.1 |
| 20260506021506 | 68 | 240 | 0.0 | 7.0 | 0.00 | 0.35 | 0.15 | 33 | 1010.0 |
| 20260506021003 | 68 | 292 | 2.0 | 7.0 | 0.00 | 0.35 | 0.15 | 32 | 1009.9 |
| 20260506020503 | 69 | 329 | 1.0 | 12.0 | 0.00 | 0.35 | 0.15 | 32 | 1009.9 |
| 20260506020003 | 69 | 184 | 3.0 | 15.0 | 0.00 | 0.36 | 0.15 | 31 | 1009.7 |
| 20260506015503 | 69 | 267 | 6.0 | 15.0 | 0.00 | 0.36 | 0.15 | 31 | 1009.7 |
| 20260506015005 | 70 | 261 | 4.0 | 15.0 | 0.00 | 0.36 | 0.15 | 31 | 1009.7 |
| 20260506014502 | 70 | 315 | 6.0 | 15.0 | 0.00 | 0.36 | 0.15 | 30 | 1009.6 |
| 20260506014003 | 70 | 209 | 7.0 | 15.0 | 0.00 | 0.36 | 0.15 | 31 | 1009.7 |
| 20260506013502 | 70 | 293 | 3.0 | 14.0 | 0.00 | 0.36 | 0.15 | 32 | 1009.5 |
| 20260506013002 | 71 | 272 | 3.0 | 11.0 | 0.00 | 0.36 | 0.15 | 32 | 1009.6 |
| 20260506012502 | 71 | 319 | 5.0 | 13.0 | 0.00 | 0.36 | 0.15 | 32 | 1009.5 |
| 20260506012003 | 72 | 287 | 5.0 | 13.0 | 0.00 | 0.36 | 0.15 | 32 | 1009.4 |
| 20260506011502 | 72 | 246 | 3.0 | 14.0 | 0.00 | 0.36 | 0.15 | 31 | 1009.3 |
| 20260506011003 | 72 | 320 | 3.0 | 17.0 | 0.00 | 0.36 | 0.15 | 32 | 1009.2 |
| 20260506010503 | 73 | 238 | 4.0 | 17.0 | 0.00 | 0.36 | 0.15 | 32 | 1009.2 |
| 20260506010118 | 73 | 236 | 5.0 | 15.0 | 0.00 | 0.36 | 0.15 | 32 | 1009.1 |
| 20260506005601 | 73 | 240 | 4.0 | 15.0 | 0.00 | 0.36 | 0.15 | 30 | 1009.0 |
| 20260506005100 | 73 | 277 | 5.0 | 12.0 | 0.00 | 0.36 | 0.15 | 31 | 1009.0 |
| 20260506004604 | 73 | 298 | 3.0 | 15.0 | 0.00 | 0.36 | 0.15 | 30 | 1009.0 |
| 20260506004100 | 73 | 165 | 6.0 | 15.0 | 0.00 | 0.36 | 0.15 | 28 | 1008.9 |
| 20260506003600 | 74 | 278 | 7.0 | 15.0 | 0.00 | 0.36 | 0.15 | 28 | 1009.0 |
| 20260506003100 | 74 | 233 | 3.0 | 14.0 | 0.00 | 0.36 | 0.15 | 27 | 1008.8 |
| 20260506002559 | 74 | 245 | 5.0 | 17.0 | 0.00 | 0.36 | 0.15 | 28 | 1008.8 |
| 20260506002100 | 74 | 277 | 7.0 | 17.0 | 0.00 | 0.36 | 0.15 | 27 | 1008.8 |
| 20260506001559 | 74 | 265 | 6.0 | 11.0 | 0.00 | 0.36 | 0.15 | 27 | 1008.7 |
| 20260506001100 | 74 | 247 | 5.0 | 12.0 | 0.00 | 0.36 | 0.15 | 28 | 1008.7 |
| 20260506000559 | 74 | 300 | 3.0 | 12.0 | 0.00 | 0.36 | 0.15 | 28 | 1008.7 |
| 20260506000059 | 76 | 160 | 5.0 | 10.0 | 0.00 | 0.36 | 0.15 | 26 | 1008.8 |
| 20260505235558 | 76 | 325 | 3.0 | 12.0 | 0.00 | 0.36 | 0.15 | 25 | 1008.7 |
| 20260505235058 | 75 | 188 | 4.0 | 15.0 | 0.00 | 0.36 | 0.15 | 26 | 1008.6 |
| 20260505234609 | 75 | 238 | 6.0 | 18.0 | 0.00 | 0.36 | 0.15 | 25 | 1008.4 |
| 20260505234057 | 75 | 203 | 9.0 | 18.0 | 0.00 | 0.36 | 0.15 | 26 | 1008.4 |
| 20260505233557 | 75 | 236 | 5.0 | 12.0 | 0.00 | 0.36 | 0.15 | 24 | 1008.4 |
| 20260505233057 | 75 | 160 | 7.0 | 12.0 | 0.00 | 0.36 | 0.15 | 26 | 1008.5 |
| 20260505232600 | 76 | 245 | 7.0 | 16.0 | 0.00 | 0.36 | 0.15 | 25 | 1008.4 |
| 20260505232058 | 76 | 232 | 6.0 | 13.0 | 0.00 | 0.36 | 0.15 | 25 | 1008.5 |
| 20260505231557 | 76 | 299 | 6.0 | 15.0 | 0.00 | 0.36 | 0.15 | 25 | 1008.5 |
| 20260505231056 | 76 | 257 | 8.0 | 15.0 | 0.00 | 0.36 | 0.15 | 26 | 1008.5 |
| 20260505230556 | 76 | 194 | 10.0 | 15.0 | 0.00 | 0.36 | 0.15 | 23 | 1008.5 |
| 20260505230055 | 77 | 229 | 8.0 | 17.0 | 0.00 | 0.36 | 0.15 | 26 | 1008.5 |
| 20260505225555 | 77 | 330 | 9.0 | 16.0 | 0.00 | 0.36 | 0.15 | 26 | 1008.4 |
| 20260505225055 | 76 | 164 | 5.0 | 16.0 | 0.00 | 0.36 | 0.15 | 27 | 1008.5 |
| 20260505224554 | 76 | 215 | 6.0 | 11.0 | 0.00 | 0.36 | 0.15 | 29 | 1008.6 |
| 20260505224056 | 75 | 278 | 3.0 | 10.0 | 0.00 | 0.36 | 0.15 | 32 | 1008.7 |
| 20260505223552 | 74 | 183 | 3.0 | 11.0 | 0.00 | 0.36 | 0.15 | 31 | 1008.8 |
| 20260505223052 | 75 | 226 | 6.0 | 11.0 | 0.00 | 0.36 | 0.15 | 30 | 1008.9 |
| 20260505222552 | 75 | 245 | 4.0 | 11.0 | 0.00 | 0.36 | 0.15 | 30 | 1008.8 |
| 20260505222052 | 76 | 258 | 5.0 | 11.0 | 0.00 | 0.36 | 0.15 | 30 | 1009.0 |
| 20260505221552 | 76 | 240 | 2.0 | 12.0 | 0.00 | 0.36 | 0.15 | 32 | 1008.9 |
| 20260505221057 | 75 | 159 | 4.0 | 14.0 | 0.00 | 0.36 | 0.15 | 31 | 1009.0 |
| 20260505220550 | 75 | 252 | 7.0 | 14.0 | 0.00 | 0.36 | 0.15 | 30 | 1009.0 |
| 20260505220050 | 74 | 192 | 5.0 | 14.0 | 0.00 | 0.36 | 0.15 | 30 | 1009.1 |
| 20260505215550 | 75 | 259 | 6.0 | 17.0 | 0.00 | 0.36 | 0.15 | 29 | 1009.2 |
| 20260505215054 | 75 | 230 | 9.0 | 17.0 | 0.00 | 0.36 | 0.15 | 30 | 1009.1 |
| 20260505214604 | 75 | 188 | 7.0 | 18.0 | 0.00 | 0.36 | 0.15 | 30 | 1009.2 |
| 20260505214050 | 74 | 233 | 8.0 | 18.0 | 0.00 | 0.36 | 0.15 | 31 | 1009.3 |
| 20260505213551 | 73 | 223 | 8.0 | 20.0 | 0.00 | 0.36 | 0.15 | 32 | 1009.3 |
| 20260505213059 | 74 | 210 | 8.0 | 20.0 | 0.00 | 0.36 | 0.15 | 30 | 1009.4 |
| 20260505212549 | 75 | 177 | 10.0 | 20.0 | 0.00 | 0.36 | 0.15 | 26 | 1009.4 |
| 20260505212049 | 75 | 247 | 9.0 | 16.0 | 0.00 | 0.36 | 0.15 | 29 | 1009.4 |
| 20260505211549 | 75 | 248 | 7.0 | 20.0 | 0.00 | 0.36 | 0.15 | 30 | 1009.5 |
| 20260505211049 | 75 | 246 | 8.0 | 20.0 | 0.00 | 0.36 | 0.15 | 30 | 1009.5 |
| 20260505210549 | 75 | 214 | 11.0 | 20.0 | 0.00 | 0.36 | 0.15 | 29 | 1009.6 |
| 20260505210055 | 75 | 235 | 8.0 | 17.0 | 0.00 | 0.36 | 0.15 | 26 | 1009.6 |
| 20260505205548 | 75 | 268 | 8.0 | 17.0 | 0.00 | 0.36 | 0.15 | 28 | 1009.6 |
| 20260505205051 | 75 | 221 | 11.0 | 19.0 | 0.00 | 0.36 | 0.15 | 28 | 1009.6 |
| 20260505204556 | 75 | 284 | 11.0 | 22.0 | 0.00 | 0.36 | 0.15 | 27 | 1009.6 |
| 20260505204047 | 75 | 244 | 12.0 | 22.0 | 0.00 | 0.36 | 0.15 | 27 | 1009.7 |
| 20260505203547 | 75 | 245 | 13.0 | 23.0 | 0.00 | 0.36 | 0.15 | 25 | 1009.6 |
| 20260505203053 | 75 | 267 | 8.0 | 21.0 | 0.00 | 0.36 | 0.15 | 28 | 1009.5 |
| 20260505202547 | 75 | 217 | 12.0 | 22.0 | 0.00 | 0.36 | 0.15 | 25 | 1009.7 |
| 20260505202046 | 75 | 209 | 10.0 | 22.0 | 0.00 | 0.36 | 0.15 | 29 | 1009.6 |
| 20260505201547 | 76 | 275 | 9.0 | 20.0 | 0.00 | 0.36 | 0.15 | 30 | 1009.7 |
| 20260505201044 | 75 | 224 | 6.0 | 20.0 | 0.00 | 0.36 | 0.15 | 33 | 1009.7 |
| 20260505200543 | 74 | 255 | 9.0 | 23.0 | 0.00 | 0.36 | 0.15 | 34 | 1009.8 |
| 20260505200057 | 74 | 242 | 10.0 | 27.0 | 0.00 | 0.36 | 0.15 | 36 | 1009.6 |
| 20260505195540 | 74 | 258 | 10.0 | 27.0 | 0.00 | 0.36 | 0.15 | 36 | 1009.8 |
| 20260505195040 | 74 | 261 | 6.0 | 21.0 | 0.00 | 0.36 | 0.15 | 35 | 1009.7 |
| 20260505194545 | 73 | 192 | 11.0 | 21.0 | 0.00 | 0.36 | 0.15 | 39 | 1009.9 |
| 20260505194039 | 72 | 175 | 7.0 | 14.0 | 0.00 | 0.36 | 0.15 | 44 | 1009.9 |
| 20260505193536 | 70 | 238 | 5.0 | 12.0 | 0.00 | 0.36 | 0.15 | 52 | 1009.8 |
| 20260505193036 | 70 | 241 | 1.0 | 5.0 | 0.00 | 0.36 | 0.15 | 52 | 1009.9 |
| 20260505192535 | 70 | 108 | 0.0 | 2.0 | 0.00 | 0.36 | 0.15 | 51 | 1009.9 |
| 20260505192035 | 70 | 149 | 0.0 | 6.0 | 0.00 | 0.36 | 0.15 | 52 | 1009.9 |
| 20260505191535 | 70 | 243 | 2.0 | 6.0 | 0.00 | 0.36 | 0.15 | 50 | 1010.0 |
| 20260505191035 | 70 | 111 | 0.0 | 4.0 | 0.00 | 0.36 | 0.15 | 52 | 1010.0 |
| 20260505190534 | 70 | 271 | 1.0 | 4.0 | 0.00 | 0.36 | 0.15 | 52 | 1010.1 |
| 20260505190036 | 70 | 26 | 0.0 | 7.0 | 0.00 | 0.36 | 0.15 | 51 | 1010.1 |
| 20260505185534 | 69 | 205 | 1.0 | 7.0 | 0.00 | 0.36 | 0.15 | 52 | 1010.3 |
| 20260505185034 | 70 | 247 | 2.0 | 9.0 | 0.00 | 0.36 | 0.15 | 51 | 1010.4 |
| 20260505184534 | 70 | 116 | 4.0 | 9.0 | 0.00 | 0.36 | 0.15 | 53 | 1010.4 |
| 20260505184032 | 70 | 108 | 2.0 | 6.0 | 0.00 | 0.36 | 0.15 | 52 | 1010.6 |
| 20260505183532 | 69 | 113 | 0.0 | 4.0 | 0.00 | 0.36 | 0.15 | 54 | 1010.7 |
| 20260505183030 | 68 | 82 | 1.0 | 5.0 | 0.00 | 0.36 | 0.15 | 55 | 1010.6 |
| 20260505182530 | 67 | 62 | 2.0 | 6.0 | 0.00 | 0.36 | 0.15 | 56 | 1010.8 |
| 20260505182031 | 67 | 28 | 4.0 | 6.0 | 0.00 | 0.36 | 0.15 | 55 | 1010.9 |
| 20260505181531 | 68 | 329 | 0.0 | 4.0 | 0.00 | 0.36 | 0.15 | 56 | 1011.0 |
| 20260505181033 | 68 | 240 | 1.0 | 4.0 | 0.00 | 0.36 | 0.15 | 56 | 1011.0 |
| 20260505180530 | 68 | 300 | 0.0 | 4.0 | 0.00 | 0.36 | 0.15 | 56 | 1011.0 |
| 20260505180051 | 68 | 327 | 0.0 | 4.0 | 0.00 | 0.36 | 0.15 | 58 | 1011.0 |
| 20260505175530 | 68 | 226 | 0.0 | 3.0 | 0.00 | 0.36 | 0.15 | 58 | 1011.0 |
| 20260505175032 | 68 | 267 | 0.0 | 3.0 | 0.00 | 0.36 | 0.15 | 58 | 1011.1 |
| 20260505174548 | 68 | 232 | 0.0 | 2.0 | 0.00 | 0.36 | 0.15 | 57 | 1011.1 |
| 20260505174029 | 67 | 227 | 0.0 | 5.0 | 0.00 | 0.36 | 0.15 | 60 | 1011.1 |
| 20260505173531 | 68 | 271 | 1.0 | 5.0 | 0.00 | 0.36 | 0.15 | 58 | 1011.2 |
| 20260505173033 | 69 | 256 | 0.0 | 3.0 | 0.00 | 0.36 | 0.15 | 58 | 1011.1 |
| 20260505172526 | 67 | 195 | 0.0 | 5.0 | 0.00 | 0.36 | 0.15 | 60 | 1011.1 |
| 20260505172026 | 67 | 191 | 2.0 | 5.0 | 0.00 | 0.36 | 0.15 | 60 | 1011.2 |
| 20260505171526 | 67 | 155 | 0.0 | 5.0 | 0.00 | 0.36 | 0.15 | 60 | 1011.2 |
| 20260505171024 | 67 | 138 | 0.0 | 1.0 | 0.00 | 0.36 | 0.15 | 63 | 1011.1 |
| 20260505170523 | 66 | 93 | 0.0 | 2.0 | 0.00 | 0.36 | 0.15 | 64 | 1011.1 |
| 20260505170023 | 65 | 94 | 0.0 | 4.0 | 0.00 | 0.36 | 0.15 | 64 | 1011.0 |
| 20260505165522 | 65 | 51 | 1.0 | 4.0 | 0.00 | 0.36 | 0.15 | 64 | 1011.0 |
| 20260505165024 | 65 | 55 | 1.0 | 3.0 | 0.00 | 0.36 | 0.15 | 64 | 1010.9 |
| 20260505164522 | 66 | 86 | 0.0 | 2.0 | 0.00 | 0.36 | 0.15 | 64 | 1010.9 |
| 20260505164020 | 65 | 28 | 0.0 | 3.0 | 0.00 | 0.36 | 0.15 | 71 | 1011.0 |
| 20260505163520 | 64 | 92 | 0.0 | 3.0 | 0.00 | 0.36 | 0.15 | 71 | 1010.9 |
| 20260505163021 | 65 | 85 | 0.0 | 0.0 | 0.00 | 0.36 | 0.15 | 72 | 1011.0 |
| 20260505162518 | 64 | 194 | 0.0 | 0.0 | 0.00 | 0.36 | 0.15 | 74 | 1011.1 |
| 20260505162018 | 63 | 194 | 0.0 | 0.0 | 0.00 | 0.36 | 0.15 | 75 | 1011.1 |
| 20260505161516 | 63 | 196 | 0.0 | 0.0 | 0.00 | 0.36 | 0.15 | 75 | 1011.2 |
| 20260505161019 | 63 | 234 | 0.0 | 0.0 | 0.00 | 0.36 | 0.15 | 75 | 1011.2 |
| 20260505160516 | 63 | 234 | 0.0 | 0.0 | 0.00 | 0.36 | 0.15 | 75 | 1011.1 |
| 20260505153012 | 62 | 315 | 0.0 | 0.0 | 0.00 | 0.36 | 0.15 | 80 | 1010.8 |
| 20260505152512 | 62 | 315 | 0.0 | 0.0 | 0.00 | 0.36 | 0.15 | 80 | 1010.7 |
| 20260505152011 | 62 | 273 | 0.0 | 1.0 | 0.00 | 0.36 | 0.15 | 81 | 1010.7 |
| 20260505151513 | 62 | 257 | 0.0 | 2.0 | 0.00 | 0.36 | 0.15 | 82 | 1010.7 |
| 20260505151010 | 62 | 290 | 0.0 | 2.0 | 0.00 | 0.36 | 0.15 | 82 | 1010.8 |
| 20260505150513 | 62 | 242 | 0.0 | 1.0 | 0.00 | 0.36 | 0.15 | 82 | 1010.8 |
| 20260505140503 | 60 | 90 | 0.0 | 0.0 | 0.00 | 0.36 | 0.15 | 81 | 1010.3 |
| 20260505124557 | 58 | 117 | 0.0 | 3.0 | 0.01 | 0.36 | 0.15 | 88 | 1009.4 |
| 20260505124055 | 58 | 142 | 1.0 | 3.0 | 0.01 | 0.36 | 0.15 | 88 | 1009.3 |
| 20260505123555 | 58 | 146 | 1.0 | 3.0 | 0.01 | 0.36 | 0.15 | 88 | 1009.4 |
| 20260505123103 | 58 | 121 | 0.0 | 1.0 | 0.01 | 0.36 | 0.15 | 87 | 1009.2 |
| 20260505122555 | 58 | 136 | 0.0 | 0.0 | 0.01 | 0.36 | 0.15 | 87 | 1009.1 |
| 20260505122055 | 58 | 129 | 0.0 | 0.0 | 0.01 | 0.36 | 0.15 | 86 | 1009.3 |
| 20260505121557 | 58 | 129 | 0.0 | 0.0 | 0.01 | 0.36 | 0.15 | 86 | 1009.3 |
| 20260505121055 | 58 | 129 | 0.0 | 0.0 | 0.01 | 0.36 | 0.15 | 85 | 1009.0 |
| 20260505120555 | 58 | 128 | 0.0 | 0.0 | 0.01 | 0.36 | 0.15 | 85 | 1008.9 |
| 20260505120055 | 58 | 128 | 0.0 | 0.0 | 0.01 | 0.36 | 0.15 | 84 | 1008.9 |
| 20260505115554 | 58 | 128 | 0.0 | 2.0 | 0.02 | 0.36 | 0.15 | 84 | 1009.0 |
| 20260505115054 | 58 | 128 | 0.0 | 2.0 | 0.02 | 0.36 | 0.15 | 83 | 1008.7 |
| 20260505114554 | 58 | 123 | 0.0 | 4.0 | 0.01 | 0.35 | 0.14 | 83 | 1008.7 |
| 20260505114054 | 58 | 105 | 0.0 | 4.0 | 0.01 | 0.35 | 0.14 | 83 | 1008.7 |
| 20260505113553 | 58 | 94 | 1.0 | 4.0 | 0.01 | 0.35 | 0.14 | 84 | 1008.8 |
| 20260505113108 | 58 | 91 | 1.0 | 4.0 | 0.01 | 0.35 | 0.14 | 85 | 1009.1 |
| 20260505112553 | 58 | 163 | 1.0 | 4.0 | 0.01 | 0.35 | 0.14 | 84 | 1009.4 |
| 20260505112052 | 58 | 69 | 1.0 | 5.0 | 0.01 | 0.35 | 0.14 | 83 | 1009.1 |
| 20260505111552 | 58 | 130 | 0.0 | 5.0 | 0.02 | 0.35 | 0.14 | 85 | 1009.2 |
| 20260505111052 | 58 | 90 | 0.0 | 8.0 | 0.02 | 0.35 | 0.14 | 85 | 1009.1 |
| 20260505110551 | 58 | 121 | 2.0 | 8.0 | 0.03 | 0.35 | 0.14 | 85 | 1009.0 |
| 20260505102048 | 58 | 103 | 1.0 | 7.0 | 0.04 | 0.34 | 0.13 | 86 | 1009.7 |
| 20260505101547 | 58 | 121 | 1.0 | 10.0 | 0.04 | 0.33 | 0.12 | 86 | 1010.1 |
| 20260505101047 | 58 | 100 | 3.0 | 12.0 | 0.04 | 0.33 | 0.12 | 86 | 1010.3 |
| 20260505100548 | 58 | 93 | 6.0 | 12.0 | 0.03 | 0.32 | 0.11 | 86 | 1010.4 |
| 20260505100050 | 58 | 109 | 6.0 | 11.0 | 0.03 | 0.32 | 0.11 | 86 | 1010.3 |
| 20260505095545 | 58 | 85 | 6.0 | 12.0 | 0.03 | 0.32 | 0.11 | 86 | 1010.3 |
| 20260505095044 | 58 | 78 | 7.0 | 12.0 | 0.03 | 0.32 | 0.11 | 86 | 1010.4 |
| 20260505094545 | 58 | 98 | 4.0 | 12.0 | 0.04 | 0.32 | 0.11 | 86 | 1010.4 |
| 20260505094043 | 58 | 138 | 7.0 | 12.0 | 0.04 | 0.32 | 0.11 | 86 | 1010.3 |
| 20260505093543 | 58 | 81 | 7.0 | 12.0 | 0.04 | 0.32 | 0.11 | 86 | 1010.4 |
| 20260505093043 | 58 | 130 | 5.0 | 14.0 | 0.03 | 0.31 | 0.10 | 86 | 1010.7 |
| 20260505092542 | 58 | 130 | 7.0 | 14.0 | 0.03 | 0.31 | 0.10 | 86 | 1010.7 |
| 20260505092042 | 58 | 136 | 6.0 | 13.0 | 0.03 | 0.30 | 0.09 | 86 | 1010.6 |
| 20260505091548 | 59 | 126 | 3.0 | 12.0 | 0.02 | 0.28 | 0.08 | 86 | 1010.7 |
| 20260505091040 | 59 | 129 | 5.0 | 13.0 | 0.02 | 0.28 | 0.08 | 86 | 1010.5 |
| 20260505090540 | 59 | 94 | 6.0 | 13.0 | 0.02 | 0.28 | 0.08 | 85 | 1010.5 |
| 20260505090043 | 59 | 162 | 7.0 | 13.0 | 0.03 | 0.28 | 0.08 | 84 | 1010.5 |
| 20260505085541 | 59 | 136 | 8.0 | 14.0 | 0.03 | 0.28 | 0.08 | 83 | 1010.5 |
| 20260505085038 | 59 | 57 | 8.0 | 16.0 | 0.04 | 0.28 | 0.08 | 83 | 1010.7 |
| 20260505084536 | 59 | 105 | 9.0 | 16.0 | 0.04 | 0.28 | 0.07 | 84 | 1010.9 |
| 20260505084036 | 59 | 116 | 6.0 | 11.0 | 0.04 | 0.28 | 0.07 | 85 | 1010.9 |
| 20260505083533 | 59 | 108 | 5.0 | 11.0 | 0.05 | 0.28 | 0.07 | 85 | 1011.1 |
| 20260505083034 | 59 | 93 | 5.0 | 10.0 | 0.05 | 0.28 | 0.07 | 84 | 1011.3 |
| 20260505082531 | 59 | 91 | 6.0 | 11.0 | 0.06 | 0.28 | 0.07 | 84 | 1011.7 |
| 20260505082030 | 59 | 94 | 5.0 | 11.0 | 0.05 | 0.27 | 0.06 | 84 | 1011.7 |
| 20260505081535 | 59 | 93 | 3.0 | 8.0 | 0.06 | 0.27 | 0.06 | 85 | 1011.8 |
| 20260505081027 | 59 | 116 | 2.0 | 6.0 | 0.06 | 0.27 | 0.06 | 85 | 1011.8 |
| 20260505080527 | 59 | 109 | 2.0 | 8.0 | 0.06 | 0.27 | 0.06 | 85 | 1012.0 |
| 20260505080031 | 59 | 83 | 4.0 | 8.0 | 0.05 | 0.26 | 0.05 | 85 | 1012.1 |
| 20260505075524 | 59 | 93 | 2.0 | 7.0 | 0.05 | 0.25 | 0.04 | 85 | 1012.2 |
| 20260505075025 | 59 | 123 | 0.0 | 7.0 | 0.05 | 0.25 | 0.04 | 84 | 1012.4 |
| 20260505074524 | 59 | 102 | 3.0 | 7.0 | 0.05 | 0.24 | 0.03 | 84 | 1012.3 |
| 20260505074024 | 59 | 105 | 2.0 | 6.0 | 0.04 | 0.23 | 0.02 | 84 | 1012.5 |
| 20260505073625 | 59 | 89 | 2.0 | 5.0 | 0.05 | 0.23 | 0.02 | 86 | 1012.4 |
| 20260505073023 | 59 | 91 | 1.0 | 3.0 | 0.06 | 0.23 | 0.02 | 86 | 1012.6 |
| 20260505072524 | 59 | 113 | 0.0 | 3.0 | 0.05 | 0.22 | 0.01 | 86 | 1012.5 |
| 20260505072021 | 59 | 110 | 0.0 | 4.0 | 0.06 | 0.22 | 0.01 | 85 | 1012.3 |
| 20260505071520 | 59 | 146 | 1.0 | 4.0 | 0.06 | 0.21 | 0.00 | 85 | 1012.5 |
| 20260505071020 | 59 | 105 | 1.0 | 3.0 | 0.07 | 0.21 | 0.00 | 85 | 1012.3 |
| 20260505070523 | 59 | 113 | 0.0 | 3.0 | 0.08 | 0.21 | 0.00 | 85 | 1012.3 |
| 20260505070018 | 59 | 100 | 1.0 | 3.0 | 0.09 | 0.21 | 0.00 | 85 | 1012.2 |
| 20260505065520 | 59 | 103 | 0.0 | 3.0 | 0.08 | 0.20 | 0.20 | 85 | 1012.1 |
| 20260505065016 | 59 | 92 | 0.0 | 2.0 | 0.09 | 0.20 | 0.20 | 85 | 1012.2 |
| 20260505064516 | 59 | 105 | 0.0 | 3.0 | 0.08 | 0.19 | 0.19 | 84 | 1012.2 |
| 20260505064016 | 59 | 105 | 0.0 | 5.0 | 0.10 | 0.19 | 0.19 | 84 | 1012.2 |
| 20260505063516 | 59 | 73 | 2.0 | 5.0 | 0.09 | 0.18 | 0.18 | 83 | 1012.0 |
| 20260505063017 | 59 | 68 | 0.0 | 2.0 | 0.09 | 0.17 | 0.17 | 83 | 1012.0 |
| 20260505062521 | 59 | 92 | 0.0 | 4.0 | 0.08 | 0.16 | 0.16 | 82 | 1012.0 |
| 20260505062015 | 59 | 84 | 1.0 | 5.0 | 0.09 | 0.16 | 0.16 | 82 | 1012.1 |
| 20260505061514 | 60 | 86 | 2.0 | 8.0 | 0.09 | 0.15 | 0.15 | 81 | 1012.1 |
| 20260505061014 | 60 | 88 | 2.0 | 8.0 | 0.08 | 0.14 | 0.14 | 81 | 1012.1 |
| 20260505060516 | 60 | 74 | 3.0 | 9.0 | 0.07 | 0.13 | 0.13 | 78 | 1012.1 |
| 20260505060114 | 60 | 124 | 3.0 | 9.0 | 0.06 | 0.12 | 0.12 | 78 | 1012.1 |
| 20260505055517 | 60 | 50 | 1.0 | 12.0 | 0.07 | 0.12 | 0.12 | 78 | 1012.1 |
| 20260505055013 | 60 | 82 | 3.0 | 12.0 | 0.06 | 0.11 | 0.11 | 76 | 1011.9 |
| 20260505054513 | 60 | 71 | 3.0 | 10.0 | 0.05 | 0.10 | 0.10 | 79 | 1012.0 |
| 20260505054013 | 60 | 102 | 2.0 | 5.0 | 0.05 | 0.09 | 0.09 | 80 | 1011.8 |
| 20260505053512 | 60 | 68 | 2.0 | 5.0 | 0.05 | 0.09 | 0.09 | 79 | 1012.0 |
| 20260505053012 | 60 | 73 | 1.0 | 4.0 | 0.04 | 0.08 | 0.08 | 79 | 1012.1 |
| 20260505052512 | 60 | 105 | 0.0 | 5.0 | 0.03 | 0.07 | 0.07 | 80 | 1012.3 |
| 20260505052012 | 59 | 43 | 1.0 | 5.0 | 0.03 | 0.07 | 0.07 | 81 | 1012.0 |
| 20260505051530 | 59 | 65 | 1.0 | 6.0 | 0.03 | 0.06 | 0.06 | 81 | 1011.9 |
| 20260505051016 | 59 | 214 | 1.0 | 6.0 | 0.03 | 0.06 | 0.06 | 81 | 1011.9 |
| 20260505050516 | 59 | 117 | 1.0 | 4.0 | 0.03 | 0.06 | 0.06 | 81 | 1011.8 |